Погода в Мглинщине

Россия / Брянская область     53°01′55″N   32°48′03″E
темп.,
°C
ветер,
м/с
пор.,
м/с
влажн.,
%
обл.,
%
осадки,
мм/ч
давл.,
гПа
погр.,
м
11 мая, вт
вт1100:00+6св34800 0.0 102655
03:00+5ссв48781 0.0 1026122
06:00+5св411791 0.0 1025214
09:00+11св68670 0.0 1024416
12:00+17св57600 0.0 1023713
15:00+19св68575 0.0 10221144
18:00+18всв59709 0.0 10211105
21:00+12вюв599591 0.3 1023313
12 мая, ср
ср1200:00+8вюв4109411 0.0 1024266
03:00+6вюв511952 0.0 1024375
06:00+5в38935 0.0 1025214
09:00+10в4674100 0.0 1024574
12:00+14в4561100 0.0 10221431
15:00+10вюв2282100 2.5 1020325
18:00+8юз5797100 8.1 1015293
21:00+7ю71094100 18.3 1014553
13 мая, чт
чт1300:00+7юв4997100 2.6 1014523
03:00+7вюв5109769 2.7 1014417
06:00+6вюв5997100 0.0 1015349
09:00+8юв6889100 0.0 1015540
12:00+11ююв6878100 0.0 1015933
15:00+14ююв6868100 0.1 10141532
18:00+15ююв586999 0.0 10141113
21:00+10юв47845 0.0 1014103
14 мая, пт
пт1400:00+8вюв46894 0.0 101487
03:00+8вюв4893100 0.0 1014128
06:00+9вюв489641 0.0 1013166
09:00+12вюв489396 0.3 1012224
12:00+17вюв687871 0.1 1011749
15:00+20ююв687119 2.4 10101188
18:00+19ю478067 1.7 1009748
21:00+14ю4791100 2.0 1010105
15 мая, сб
сб1500:00+13ююз349242 0.0 101047
03:00+11ююз229098 0.0 101014
06:00+12юз1189100 0.0 101010
09:00+16зсз007829 0.0 1010294
12:00+20юз126595 1.3 1010941
15:00+20зюз23626 2.1 10081118
18:00
21:00+13сз36937 4.5 1010114